Погода в Кременках

Россия / Ульяновская область     54°30′32″N   48°52′03″E
темп.,
°C
ветер,
м/с
пор.,
м/с
влажн.,
%
обл.,
%
осадки,
мм/ч
давл.,
гПа
погр.,
м
4 декабря, сб
сб401:00+3ю81397100 0.4 1011391
04:00+4ю91690100 0.5 1009476
07:00+4ююз112176100 0.0 1007500
10:00+4ююз132278100 0.0 1006737
13:00+4ююз121989100 0.9 1005813
16:00+2зюз61095100 2.1 1008644
19:00+2зюз71082100 0.0 1009642
22:000зюз71078100 0.0 1011653
5 декабря, вс
вс501:000з7977100 0.0 1012722
04:00−1з797655 0.0 1013658
07:00−2з787785 0.0 1014675
10:00−2зсз677145 0.0 1016792
13:00−1зсз566777 0.0 1017845
16:00−1зсз4467100 0.0 1018528
19:00−1сз3365100 0.0 1019488
22:00−2ссз2368100 0.0 1020433
6 декабря, пн
пн601:00−3ссз127953 0.0 1021311
04:00−2ссз227565 0.0 1022365
07:00−3св327739 0.0 1023266
10:00−4всв328183 0.0 1025275
13:00−3всв2278100 0.0 1026336
16:00−3всв337861 0.0 1027250
19:00−4всв3378100 0.0 1029271
22:00−4в3479100 0.0 1029270
7 декабря, вт
вт701:00−3вюв3477100 0.0 1030319
04:00−4вюв457715 0.0 1030284
07:00−4вюв567956 0.0 1031267
10:00−4юв5977100 0.0 1031351
13:00−3юв61071100 0.0 1030459
16:00−3юв81271100 0.0 1029465
19:00−3юв91571100 0.0 1028516
22:00−3ююв91681100 0.2 1026576
8 декабря, ср
ср801:00−2ююв91695100 2.7 1024541
04:000ююв91693100 3.3 1023545
07:00+1ю81593100 1.9 1022510
10:00+2ююв81494100 2.0 1022419
13:00+2ю81494100 0.0 1022417
16:00+2ю71396100 0.0 1022413
19:00+2ююв71295100 0.0 1023372
22:00+1ююв71389100 0.0 1023378